Weather History for Ft Lauderdale, FL

Change the Weather History Date:

Tuesday, January 8, 2013

  Actual Average Record
Temperature  
Mean Temperature 77 °F 69 °F  
Max Temperature 81 °F 76 °F 86 °F (1990)
Min Temperature 73 °F 61 °F 37 °F (1970)
Degree Days  
Heating Degree Days 0 2  
Month to date heating degree days 0 16  
Since 1 July heating degree days 22 48  
Cooling Degree Days 12 6  
Month to date cooling degree days 75 48  
Year to date cooling degree days 75 48  
Growing Degree Days 27 (Base 50)    
Moisture  
Dew Point 71 °F    
Average Humidity 81    
Maximum Humidity 87    
Minimum Humidity 74    
Precipitation  
Precipitation 0.03 in 0.09 in 1.96 in (1938)
Month to date precipitation 0.28 0.67  
Year to date precipitation 0.28 0.67  
Snow  
Snow 0.00 in - - ()
Month to date snowfall 0.0  
Since 1 July snowfall 0.0  
Snow Depth 0.00 in    
Sea Level Pressure  
Sea Level Pressure 30.14 in    
Wind  
Wind Speed 12 mph (ESE)    
Max Wind Speed 18 mph    
Max Gust Speed 24 mph    
Visibility 10 miles    
Events Rain    
T = Trace of Precipitation, MM = Missing Value Source: NWS Daily Summary

Daily Weather History Graph

Daily Weather History Graph

Search for Another Location

Airport:

Trip Planner

Search our weather history database for the weather conditions in past years. The results will help you decide how hot, cold, wet, or windy it might be!

Date:

Astronomy

Jan. 08, 2013 Rise Set
Actual Time 7:09 AM EST 5:45 PM EST
Civil Twilight 6:44 AM EST 6:10 PM EST
Nautical Twilight 6:15 AM EST 6:39 PM EST
Astronomical Twilight 5:47 AM EST 7:07 PM EST
Moon 3:42 AM EST (1/8) 2:45 PM EST (1/8)
Length of Visible Light 11h 26m
Length of Day
10h 36m
Waning Crescent, 14% of the Moon is Illuminated
Jan 8
Waning Crescent
Jan 11
New
Jan 18
First Quarter
Jan 26
Full
Feb 3
Last Quarter

Hourly Weather History & Observations

Time (EST) Temp. Heat Index Dew Point Humidity Pressure Visibility Wind Dir Wind Speed Gust Speed Precip Events Conditions
12:53 AM 75.0 °F - 69.1 °F 82% 30.10 in 10.0 mi East 8.1 mph - N/A   Scattered Clouds
1:53 AM 75.0 °F - 69.1 °F 82% 30.09 in 10.0 mi ESE 10.4 mph - N/A   Partly Cloudy
2:53 AM 73.9 °F - 70.0 °F 87% 30.08 in 10.0 mi ESE 9.2 mph - N/A   Scattered Clouds
3:53 AM 73.9 °F - 69.1 °F 85% 30.07 in 10.0 mi ESE 9.2 mph - N/A   Partly Cloudy
4:53 AM 73.9 °F - 69.1 °F 85% 30.08 in 10.0 mi SE 9.2 mph - N/A   Partly Cloudy
5:53 AM 73.9 °F - 69.1 °F 85% 30.10 in 10.0 mi ESE 10.4 mph - N/A   Scattered Clouds
6:53 AM 73.9 °F - 69.1 °F 85% 30.12 in 10.0 mi ESE 8.1 mph - N/A   Partly Cloudy
7:53 AM 75.0 °F - 70.0 °F 84% 30.15 in 10.0 mi ESE 8.1 mph - N/A   Partly Cloudy
8:53 AM 77.0 °F - 70.0 °F 79% 30.17 in 10.0 mi ESE 10.4 mph - N/A   Partly Cloudy
9:53 AM 78.1 °F - 71.1 °F 79% 30.20 in 10.0 mi ESE 12.7 mph - N/A   Partly Cloudy
10:53 AM 80.1 °F 83.8 °F 72.0 °F 76% 30.19 in 10.0 mi East 13.8 mph - N/A   Partly Cloudy
11:53 AM 80.1 °F 83.6 °F 71.1 °F 74% 30.17 in 10.0 mi SE 12.7 mph - N/A   Partly Cloudy
12:53 PM 81.0 °F 84.9 °F 71.1 °F 72% 30.15 in 10.0 mi SE 16.1 mph 24.2 mph N/A   Scattered Clouds
1:16 PM 80.6 °F 84.6 °F 71.6 °F 74% 30.14 in 10.0 mi SE 13.8 mph - N/A   Mostly Cloudy
1:53 PM 80.1 °F 83.6 °F 71.1 °F 74% 30.13 in 10.0 mi ESE 16.1 mph - N/A   Mostly Cloudy
2:44 PM 80.6 °F 84.6 °F 71.6 °F 74% 30.13 in 10.0 mi SE 12.7 mph 19.6 mph N/A   Scattered Clouds
2:53 PM 79.0 °F - 71.1 °F 77% 30.13 in 10.0 mi SE 15.0 mph - N/A   Scattered Clouds
3:53 PM 79.0 °F - 70.0 °F 74% 30.13 in 10.0 mi SE 16.1 mph - N/A   Scattered Clouds
4:00 PM 78.8 °F - 71.6 °F 78% 30.13 in 10.0 mi SE 15.0 mph - N/A   Mostly Cloudy
4:53 PM 78.1 °F - 71.1 °F 79% 30.14 in 10.0 mi ESE 10.4 mph - N/A   Mostly Cloudy
5:02 PM 78.8 °F - 71.6 °F 78% 30.14 in 10.0 mi ESE 11.5 mph - N/A   Scattered Clouds
5:53 PM 77.0 °F - 71.1 °F 82% 30.15 in 10.0 mi East 11.5 mph - N/A   Scattered Clouds
6:53 PM 75.9 °F - 71.1 °F 85% 30.15 in 10.0 mi ESE 10.4 mph - N/A   Scattered Clouds
7:53 PM 77.0 °F - 71.1 °F 82% 30.16 in 10.0 mi East 13.8 mph - N/A   Scattered Clouds
8:45 PM 77.0 °F - 71.6 °F 83% 30.16 in 10.0 mi East 16.1 mph - N/A   Mostly Cloudy
8:53 PM 75.9 °F - 72.0 °F 87% 30.16 in 10.0 mi ESE 15.0 mph - N/A   Mostly Cloudy
9:47 PM 77.0 °F - 71.6 °F 83% 30.16 in 10.0 mi SE 16.1 mph 24.2 mph N/A   Overcast
9:53 PM 75.9 °F - 72.0 °F 87% 30.16 in 7.0 mi SE 12.7 mph 23.0 mph 0.01 in Rain Light Rain
10:08 PM 75.2 °F - 71.6 °F 89% 30.16 in 10.0 mi SE 11.5 mph - 0.02 in   Overcast
10:53 PM 75.9 °F - 72.0 °F 87% 30.17 in 10.0 mi SE 9.2 mph - 0.02 in   Mostly Cloudy
11:53 PM 75.9 °F - 71.1 °F 85% 30.16 in 10.0 mi SE 9.2 mph - 0.00 in   Mostly Cloudy